New Delhi, India

12:58 PM IST on May 21, 2018 (GMT +0530)
Indira Gandhi International

Weather History for VIDP - January, 2014

Change the Weather History Date:

Friday, January 17, 2014

  Actual Average Record
Temperature  
Mean Temperature 52 °F -  
Max Temperature 55 °F 70 °F 75 °F (2018)
Min Temperature 48 °F 48 °F 41 °F (2017)
Degree Days  
Heating Degree Days 14    
Growing Degree Days 2 (Base 50)    
Moisture  
Dew Point 52 °F    
Average Humidity 98    
Maximum Humidity 100    
Minimum Humidity 94    
Precipitation  
Precipitation 0.00 in - - ()
Sea Level Pressure  
Sea Level Pressure 30.05 in    
Wind  
Wind Speed 3 mph ()    
Max Wind Speed 12 mph    
Max Gust Speed -    
Visibility 0.7 miles    
Events Fog    
Averages and records for this station are not official NWS values.
T = Trace of Precipitation, MM = Missing Value Source: Averaged Metar Reports

Daily Weather History Graph

Daily Weather History Graph

Search for Another Location

Airport or City:

Astronomy

Jan. 17, 2014 Rise Set
Actual Time 7:15 AM IST 5:48 PM IST
Civil Twilight 6:49 AM IST 6:13 PM IST
Nautical Twilight 6:20 AM IST 6:42 PM IST
Astronomical Twilight 5:52 AM IST 7:10 PM IST
Moon 6:59 PM IST (1/17) 7:36 AM IST (1/17)
Length of Visible Light 11h 23m
Length of Day
10h 33m
Full, 99% of the Moon is Illuminated
Jan 17
Full
Jan 24
Last Quarter
Jan 31
New
Feb 7
First Quarter
Feb 15
Full

Hourly Weather History & Observations

Time (IST) Temp. Dew Point Humidity Pressure Visibility Wind Dir Wind Speed Gust Speed Precip Events Conditions
12:00 AM 50.0 °F 50.0 °F 100% 30.06 in 0.1 mi Calm Calm - N/A Fog Fog
12:30 AM 50.0 °F 50.0 °F 100% 30.06 in 0.1 mi Calm Calm - N/A Fog Fog
2:30 AM 48.2 °F 48.2 °F 100% 30.06 in - Calm Calm - N/A Fog Fog
3:00 AM 48.2 °F 48.2 °F 100% 30.06 in - Calm Calm - N/A Fog Fog
3:30 AM 48.2 °F 48.2 °F 100% 30.06 in - Calm Calm - N/A Fog Fog
4:00 AM 48.2 °F 48.2 °F 100% 30.06 in - Calm Calm - N/A Fog Fog
4:30 AM 48.2 °F 48.2 °F 100% 30.06 in - Calm Calm - N/A Fog Fog
5:00 AM 48.2 °F 48.2 °F 100% 30.06 in - Calm Calm - N/A Fog Fog
5:30 AM 48.2 °F 48.2 °F 100% 30.06 in 0.1 mi Calm Calm - N/A Fog Fog
6:00 AM 48.2 °F 48.2 °F 100% 30.06 in 0.1 mi Calm Calm - N/A Fog Fog
6:30 AM 48.2 °F 48.2 °F 100% 30.06 in 0.1 mi ESE 2.3 mph - N/A Fog Fog
7:00 AM 50.0 °F 50.0 °F 100% 30.06 in 0.1 mi ESE 2.3 mph - N/A Fog Fog
7:30 AM 50.0 °F 50.0 °F 100% 30.09 in 0.1 mi SE 3.5 mph - N/A Fog Fog
8:00 AM 51.8 °F 50.0 °F 94% 30.09 in 0.2 mi East 3.5 mph - N/A Fog Fog
8:30 AM 51.8 °F 50.0 °F 94% 30.09 in 0.3 mi ESE 8.1 mph - N/A Fog Fog
9:00 AM 51.8 °F 50.0 °F 94% 30.09 in 0.4 mi ESE 6.9 mph - N/A Fog Fog
9:30 AM 53.6 °F 51.8 °F 94% 30.12 in 0.7 mi ESE 10.4 mph - N/A   Partly Cloudy
10:00 AM 53.6 °F 51.8 °F 94% 30.12 in 0.9 mi ESE 10.4 mph - N/A   Partly Cloudy
10:30 AM 53.6 °F 51.8 °F 94% 30.12 in 0.9 mi SE 11.5 mph - N/A   Partly Cloudy
11:00 AM 53.6 °F 51.8 °F 94% 30.12 in 0.9 mi ESE 11.5 mph - N/A   Partly Cloudy
11:30 AM 53.6 °F 51.8 °F 94% 30.12 in 0.7 mi ESE 9.2 mph - N/A   Partly Cloudy
12:00 PM 53.6 °F 51.8 °F 94% 30.12 in 0.7 mi East 9.2 mph - N/A   Partly Cloudy
12:30 PM 53.6 °F 51.8 °F 94% 30.09 in 0.9 mi East 8.1 mph - N/A   Partly Cloudy
1:00 PM 53.6 °F 51.8 °F 94% 30.06 in 0.9 mi East 8.1 mph - N/A   Partly Cloudy
2:00 PM 53.6 °F 53.6 °F 100% 30.01 in 1.0 mi ESE 9.2 mph - N/A   Mist
2:30 PM 53.6 °F 53.6 °F 100% 30.01 in 1.0 mi ESE 8.1 mph - N/A   Overcast
3:00 PM 53.6 °F 53.6 °F 100% 30.01 in 1.0 mi East 6.9 mph - N/A   Overcast
3:30 PM 53.6 °F 53.6 °F 100% 30.01 in 1.0 mi East 8.1 mph - N/A   Drizzle
4:00 PM 53.6 °F 53.6 °F 100% 29.98 in 1.0 mi East 8.1 mph - N/A   Drizzle
4:30 PM 53.6 °F 53.6 °F 100% 29.98 in 1.0 mi ESE 6.9 mph - N/A   Overcast
5:00 PM 53.6 °F 53.6 °F 100% 29.98 in 1.0 mi East 8.1 mph - N/A   Overcast
5:30 PM 55.4 °F 55.4 °F 100% 29.98 in 1.0 mi East 4.6 mph - N/A   Overcast
6:30 PM 55.4 °F 55.4 °F 100% 29.98 in 0.9 mi East 3.5 mph - N/A   Overcast
7:00 PM 55.4 °F 55.4 °F 100% 29.98 in 0.9 mi NNE 3.5 mph - N/A   Mostly Cloudy
7:30 PM 55.4 °F 55.4 °F 100% 29.98 in 0.9 mi Calm Calm - N/A   Mostly Cloudy
8:00 PM 55.4 °F 55.4 °F 100% 30.01 in 1.1 mi ESE 3.5 mph - N/A   Mostly Cloudy
8:30 PM 55.4 °F 55.4 °F 100% 30.01 in 1.1 mi ESE 3.5 mph - N/A   Mostly Cloudy
9:00 PM 55.4 °F 55.4 °F 100% 30.01 in 1.1 mi South 4.6 mph - N/A   Mostly Cloudy
9:30 PM 55.4 °F 55.4 °F 100% 29.98 in 1.1 mi SE 4.6 mph - N/A   Mostly Cloudy
10:30 PM 55.4 °F 55.4 °F 100% 30.01 in 1.0 mi SSE 4.6 mph - N/A   Mostly Cloudy
11:00 PM 55.4 °F 55.4 °F 100% 30.01 in 1.0 mi East 8.1 mph - N/A   Mostly Cloudy